Weather History for Red Bluff, CA

Change the Weather History Date:

Wednesday, January 9, 2013

  Actual Average Record
Temperature  
Mean Temperature 44 °F -  
Max Temperature 48 °F 52 °F 74 °F (1938)
Min Temperature 39 °F 36 °F 17 °F (1937)
Degree Days  
Heating Degree Days 20    
Moisture  
Dew Point 39 °F    
Average Humidity 83    
Maximum Humidity 100    
Minimum Humidity 36    
Precipitation  
Precipitation 0.01 in - - ()
Sea Level Pressure  
Sea Level Pressure 30.06 in    
Wind  
Wind Speed 3 mph (NW)    
Max Wind Speed 17 mph    
Max Gust Speed 26 mph    
Visibility 4 miles    
Events Fog , Rain    
Averages and records for this station are not official NWS values.
T = Trace of Precipitation, MM = Missing Value Source: NWS Daily Summary

Daily Weather History Graph

Daily Weather History Graph

Search for Another Location

Airport:

Trip Planner

Search our weather history database for the weather conditions in past years. The results will help you decide how hot, cold, wet, or windy it might be!

Date:

Astronomy

Jan. 09, 2013 Rise Set
Actual Time 7:31 AM PST 5:01 PM PST
Civil Twilight 7:00 AM PST 5:32 PM PST
Nautical Twilight 6:27 AM PST 6:05 PM PST
Astronomical Twilight 5:54 AM PST 6:38 PM PST
Moon 5:16 AM PST (1/9) 3:09 PM PST (1/9)
Length of Visible Light 10h 31m
Length of Day
9h 30m
Waning Crescent, 6% of the Moon is Illuminated
Jan 9
Waning Crescent
Jan 11
New
Jan 18
First Quarter
Jan 26
Full
Feb 3
Last Quarter

Hourly Weather History & Observations

Time (PST) Temp. Windchill Dew Point Humidity Pressure Visibility Wind Dir Wind Speed Gust Speed Precip Events Conditions
12:06 AM 41.0 °F - 39.2 °F 93% 30.20 in 0.2 mi Calm Calm - N/A Fog Fog
12:27 AM 42.8 °F - 39.2 °F 87% 30.19 in 0.2 mi Calm Calm - N/A Fog Fog
12:50 AM 42.8 °F - 39.2 °F 87% 30.19 in 0.8 mi Calm Calm - N/A   Mist
12:54 AM 42.1 °F - 39.9 °F 92% 30.19 in 1.0 mi Calm Calm - N/A   Mist
1:00 AM 41.0 °F 39.0 °F 39.2 °F 93% 30.19 in 1.5 mi North 3.5 mph - N/A   Scattered Clouds
1:05 AM 39.2 °F 35.9 °F 39.2 °F 100% 30.19 in 1.0 mi North 4.6 mph - N/A   Mist
1:43 AM 41.0 °F 39.0 °F 39.2 °F 93% 30.19 in 1.5 mi NE 3.5 mph - N/A   Partly Cloudy
1:54 AM 41.0 °F 39.0 °F 39.9 °F 96% 30.20 in 1.8 mi NNW 3.5 mph - N/A   Partly Cloudy
2:35 AM 42.8 °F 41.1 °F 39.2 °F 87% 30.18 in 2.0 mi NW 3.5 mph - N/A   Clear
2:50 AM 42.8 °F 39.3 °F 39.2 °F 87% 30.18 in 1.8 mi WNW 5.8 mph - N/A   Clear
2:54 AM 42.1 °F 37.7 °F 39.9 °F 92% 30.19 in 1.8 mi WNW 6.9 mph - N/A   Clear
3:04 AM 42.8 °F 39.3 °F 39.2 °F 87% 30.18 in 2.0 mi WNW 5.8 mph - N/A   Clear
3:54 AM 42.1 °F 39.2 °F 39.9 °F 92% 30.17 in 2.5 mi WNW 4.6 mph - N/A   Clear
4:08 AM 42.8 °F 40.1 °F 39.2 °F 87% 30.16 in 2.5 mi NNW 4.6 mph - N/A   Mostly Cloudy
4:27 AM 42.8 °F 40.1 °F 39.2 °F 87% 30.12 in 2.5 mi NE 4.6 mph - N/A   Scattered Clouds
4:54 AM 42.1 °F 39.2 °F 41.0 °F 96% 30.14 in 2.5 mi NNW 4.6 mph - N/A   Mostly Cloudy
5:54 AM 43.0 °F 40.3 °F 41.0 °F 93% 30.12 in 2.5 mi WNW 4.6 mph - N/A   Mostly Cloudy
6:10 AM 44.6 °F 42.2 °F 42.8 °F 93% 30.11 in 3.0 mi WNW 4.6 mph - N/A   Overcast
6:54 AM 42.8 °F 40.1 °F 41.0 °F 93% 30.10 in 3.0 mi WNW 4.6 mph - N/A   Overcast
7:54 AM 44.1 °F - 42.1 °F 93% 30.10 in 2.0 mi Calm Calm - N/A   Overcast
8:54 AM 45.0 °F - 42.1 °F 90% 30.10 in 1.8 mi Calm Calm - N/A   Overcast
9:01 AM 44.6 °F 43.1 °F 42.8 °F 93% 30.10 in 2.0 mi WNW 3.5 mph - N/A   Overcast
9:40 AM 44.6 °F - 42.8 °F 93% 30.08 in 3.0 mi Calm Calm - N/A   Overcast
9:54 AM 45.0 °F - 42.1 °F 90% 30.07 in 3.0 mi Calm Calm - N/A   Overcast
10:34 AM 44.6 °F - 42.8 °F 93% 30.06 in 2.5 mi Calm Calm - N/A   Overcast
10:54 AM 46.0 °F 44.8 °F 43.0 °F 89% 30.06 in 2.5 mi WSW 3.5 mph - N/A   Overcast
11:33 AM 46.4 °F - 42.8 °F 87% 30.01 in 2.5 mi Calm Calm - N/A   Overcast
11:54 AM 46.0 °F - 43.0 °F 89% 30.01 in 3.0 mi Calm Calm - N/A   Overcast
12:02 PM 46.4 °F - 42.8 °F 87% 30.01 in 2.5 mi Calm Calm - N/A   Overcast
12:30 PM 46.4 °F - 42.8 °F 87% 29.99 in 3.0 mi Calm Calm - N/A   Overcast
12:39 PM 46.4 °F 44.3 °F 42.8 °F 87% 29.98 in 2.5 mi SE 4.6 mph - N/A   Overcast
12:54 PM 46.0 °F - 43.0 °F 89% 29.97 in 2.0 mi North - - N/A   Overcast
1:02 PM 46.4 °F 45.2 °F 42.8 °F 87% 29.96 in 2.0 mi SE 3.5 mph - N/A   Overcast
1:27 PM 46.4 °F 42.9 °F 42.8 °F 87% 29.95 in 1.8 mi SE 6.9 mph - N/A   Overcast
1:54 PM 46.0 °F - 44.1 °F 93% 29.96 in 2.0 mi Calm Calm - N/A   Overcast
2:54 PM 46.0 °F - 43.0 °F 89% 29.96 in 2.5 mi Calm Calm - 0.00 in Rain Light Rain
3:10 PM 46.4 °F 43.5 °F 42.8 °F 87% 29.94 in 1.8 mi SE 5.8 mph - 0.00 in Rain Light Rain
3:21 PM 48.2 °F - 42.8 °F 82% 29.94 in 3.0 mi SSE 8.1 mph - 0.00 in Rain Light Rain
3:54 PM 48.0 °F - 43.0 °F 83% 29.94 in 6.0 mi SSE 5.8 mph - 0.01 in Rain Light Rain
4:54 PM 46.9 °F - 42.1 °F 83% 29.93 in 6.0 mi SW 5.8 mph - 0.00 in   Haze
5:54 PM 48.0 °F - 30.9 °F 52% 29.92 in 10.0 mi West 6.9 mph - N/A   Overcast
6:54 PM 46.9 °F - 28.9 °F 50% 29.93 in 10.0 mi Calm Calm - N/A   Mostly Cloudy
7:54 PM 44.1 °F 39.0 °F 27.0 °F 51% 29.94 in 10.0 mi NW 9.2 mph - N/A   Clear
8:54 PM 45.0 °F 37.6 °F 26.1 °F 48% 29.94 in 10.0 mi WNW 17.3 mph 26.5 mph N/A   Clear
9:54 PM 44.1 °F 37.4 °F 26.1 °F 49% 29.96 in 10.0 mi WNW 13.8 mph - N/A   Clear
10:54 PM 43.0 °F 39.5 °F 25.0 °F 49% 29.99 in 10.0 mi North 5.8 mph - N/A   Clear
11:54 PM 39.0 °F 35.7 °F 27.0 °F 62% 30.01 in 10.0 mi NE 4.6 mph - N/A   Clear